Location: Possagno
(45.8500°N, 11.8667°E)
Time: 21:49:40
(UTC+00:00)

Resurs 1-4 Rocket - Pass Details

Date: 06 October 2020
Orbit: 800 x 813 km, 98.6° (Epoch: 27 October)

Event Time Altitude Azimuth Distance (km) Brightness Sun altitude
Rises 00:11:21 0° 21° (NNE) 3,335 6.0 -46.6°
Reaches altitude 10° 00:13:52 10° 29° (NNE) 2,401 5.1 -46.4°
Enters shadow 00:13:53 10° 29° (NNE) 2,399 5.1 -46.4°
